GW7174 Weather Reports


time (UTC)temp
F
wind
direction
speed
knots
gust
knots
rain 1hr
in
rain 24hr
in
rain mn
in
humidity
%
barometer
mb
20260507195753 67 119 2.6 2.6 0.00 0.03 0.03 35 1007.8
20260507195251 67 233 1.7 3.5 0.00 0.03 0.03 33 1007.9
20260507194748 66 231 1.7 2.6 0.00 0.03 0.03 33 1008.1
20260507194244 65 342 2.6 4.3 0.00 0.03 0.03 34 1008.4
20260507193741 68 39 1.7 3.5 0.00 0.03 0.03 32 1008.2
20260507193237 68 337 1.7 2.6 0.00 0.03 0.03 34 1008.1
20260507192734 68 319 1.7 4.3 0.00 0.03 0.03 36 1008.1
20260507192230 68 342 3.5 3.5 0.00 0.03 0.03 36 1008.3
20260507191726 67 27 0.9 1.7 0.00 0.03 0.03 35 1008.3
20260507191224 67 265 2.6 4.3 0.00 0.03 0.03 33 1008.5
20260507190720 66 305 5.2 5.2 0.00 0.03 0.03 36 1008.7
20260507190219 66 354 3.5 5.2 0.00 0.03 0.03 38 1008.7
20260507185717 67 302 2.6 5.2 0.00 0.03 0.03 34 1008.5
20260507185214 67 325 0.9 3.5 0.00 0.03 0.03 39 1008.9
20260507184711 67 309 2.6 5.2 0.00 0.03 0.03 36 1009.0
20260507184209 66 310 2.6 5.2 0.00 0.03 0.03 34 1009.0
20260507183705 66 255 5.2 5.2 0.00 0.03 0.03 35 1009.0
20260507183202 65 279 1.7 3.5 0.00 0.03 0.03 37 1008.8
20260507182700 65 289 1.7 3.5 0.00 0.03 0.03 35 1009.2
20260507182155 66 316 3.5 5.2 0.00 0.03 0.03 37 1008.9
20260507181652 66 23 2.6 3.5 0.00 0.03 0.03 34 1009.1
20260507181148 65 293 1.7 2.6 0.00 0.03 0.03 34 1009.0
20260507180644 65 329 4.3 5.2 0.00 0.03 0.03 35 1009.3
20260507180142 65 23 2.6 3.5 0.00 0.03 0.03 39 1009.2
20260507175637 64 120 0.0 2.6 0.00 0.03 0.03 34 1009.4
20260507175135 65 355 2.6 4.3 0.00 0.03 0.03 37 1009.5
20260507174632 66 108 3.5 8.7 0.00 0.03 0.03 36 1009.5
20260507174130 64 118 2.6 3.5 0.00 0.03 0.03 39 1009.7
20260507173627 64 266 3.5 4.3 0.00 0.03 0.03 37 1009.7
20260507173124 64 24 1.7 5.2 0.00 0.03 0.03 41 1009.8
20260507172620 64 280 1.7 5.2 0.00 0.03 0.03 36 1009.8
20260507172117 64 313 3.5 6.1 0.00 0.03 0.03 35 1010.0
20260507171612 63 3 0.9 3.5 0.00 0.03 0.03 37 1010.2
20260507171109 63 39 1.7 3.5 0.00 0.03 0.03 35 1010.3
20260507170607 63 38 2.6 4.3 0.00 0.03 0.03 36 1010.4
20260507170103 62 7 2.6 2.6 0.00 0.03 0.03 35 1010.6
20260507165559 63 318 3.5 5.2 0.00 0.03 0.03 35 1010.5
20260507165055 63 326 3.5 6.1 0.00 0.03 0.03 39 1010.6
20260507164552 63 13 2.6 4.3 0.00 0.03 0.03 37 1010.7
20260507164049 62 285 3.5 4.3 0.00 0.03 0.03 40 1010.7
20260507163546 63 295 1.7 2.6 0.00 0.03 0.03 46 1010.6
20260507163044 63 353 2.6 3.5 0.00 0.03 0.03 41 1010.8
20260507162544 62 357 2.6 5.2 0.00 0.03 0.03 42 1010.9
20260507162042 62 9 3.5 4.3 0.00 0.03 0.03 40 1011.0
20260507161539 61 80 1.7 8.7 0.00 0.03 0.03 37 1011.1
20260507161034 62 282 0.0 3.5 0.00 0.03 0.03 41 1011.1
20260507160530 60 323 4.3 5.2 0.00 0.03 0.03 38 1011.1
20260507160027 61 23 1.7 4.3 0.00 0.03 0.03 38 1011.2
20260507155522 60 14 6.1 6.1 0.00 0.03 0.03 41 1011.2
20260507155020 61 351 2.6 4.3 0.00 0.03 0.03 40 1011.4
20260507154516 61 330 1.7 5.2 0.00 0.03 0.03 40 1011.2
20260507154014 60 7 1.7 2.6 0.00 0.03 0.03 42 1011.2
20260507153510 60 6 3.5 3.5 0.00 0.03 0.03 41 1011.3
20260507153006 60 42 3.5 3.5 0.00 0.03 0.03 40 1011.6
20260507152502 60 14 0.9 3.5 0.00 0.03 0.03 43 1011.6
20260507151959 60 48 0.9 2.6 0.00 0.03 0.03 46 1011.8
20260507151455 59 31 1.7 4.3 0.00 0.03 0.03 43 1011.6
20260507150952 59 39 1.7 4.3 0.00 0.03 0.03 44 1011.5
20260507150449 59 19 1.7 7.8 0.00 0.03 0.03 41 1011.9
20260507145945 60 112 2.6 3.5 0.00 0.03 0.03 46 1012.0
20260507145441 60 337 0.9 5.2 0.00 0.03 0.03 46 1012.2
20260507144938 58 3 1.7 3.5 0.00 0.03 0.03 52 1012.2
20260507144435 56 15 2.6 2.6 0.00 0.03 0.03 46 1012.1
20260507143932 57 13 1.7 1.7 0.00 0.03 0.03 46 1012.1
20260507143430 57 62 0.0 1.7 0.00 0.03 0.03 51 1012.3
20260507142926 55 9 2.6 4.3 0.00 0.03 0.03 47 1012.5
20260507142422 55 24 1.7 2.6 0.00 0.03 0.03 48 1012.2
20260507141919 55 350 2.6 2.6 0.00 0.03 0.03 48 1012.2
20260507141415 55 14 1.7 1.7 0.00 0.03 0.03 50 1012.3
20260507140912 55 346 1.7 2.6 0.00 0.03 0.03 49 1012.5
20260507140409 55 15 1.7 2.6 0.00 0.03 0.03 50 1012.6
20260507135907 55 3 0.9 4.3 0.00 0.03 0.03 51 1012.7
20260507135403 54 328 0.0 2.6 0.00 0.03 0.03 50 1012.8
20260507134901 54 340 1.7 4.3 0.00 0.03 0.03 49 1013.0
20260507134356 54 342 2.6 3.5 0.00 0.03 0.03 49 1012.9
20260507133853 54 1 4.3 4.3 0.00 0.03 0.03 50 1012.9
20260507133348 54 7 2.6 3.5 0.00 0.03 0.03 53 1012.9
20260507132847 54 348 2.6 4.3 0.00 0.03 0.03 52 1012.5
20260507132343 54 2 3.5 3.5 0.00 0.03 0.03 53 1012.8
20260507131840 54 337 1.7 3.5 0.00 0.03 0.03 53 1012.7
20260507131337 54 4 3.5 3.5 0.00 0.03 0.03 54 1012.7
20260507130834 54 346 1.7 5.2 0.00 0.03 0.03 53 1012.6
20260507130331 54 354 4.3 4.3 0.00 0.03 0.03 52 1013.1
20260507125830 54 13 1.7 3.5 0.00 0.03 0.03 53 1012.9
20260507125327 54 321 0.0 3.5 0.00 0.03 0.03 53 1012.9
20260507124824 54 346 2.6 2.6 0.00 0.03 0.03 54 1012.9
20260507124320 54 345 2.6 3.5 0.00 0.03 0.03 53 1013.0
20260507123819 54 355 2.6 4.3 0.00 0.03 0.03 53 1013.0
20260507123316 54 333 1.7 2.6 0.00 0.03 0.03 56 1012.9
20260507122812 53 355 1.7 2.6 0.00 0.03 0.03 57 1012.8
20260507122308 53 310 0.9 2.6 0.00 0.03 0.03 56 1012.9
20260507121804 53 327 1.7 1.7 0.00 0.03 0.03 57 1012.7
20260507121300 53 351 1.7 2.6 0.00 0.03 0.03 56 1012.7
20260507120756 53 316 1.7 4.3 0.00 0.03 0.03 56 1012.9
20260507120253 53 331 1.7 3.5 0.00 0.03 0.03 56 1012.9
20260507115749 53 11 1.7 2.6 0.00 0.03 0.03 56 1012.8
20260507115245 53 333 0.0 1.7 0.00 0.03 0.03 55 1012.7
20260507114741 53 341 0.9 2.6 0.00 0.03 0.03 55 1012.6
20260507114238 53 320 0.9 2.6 0.00 0.03 0.03 55 1012.7
20260507113736 53 346 0.9 3.5 0.00 0.03 0.03 55 1012.4
20260507113232 53 323 1.7 2.6 0.00 0.03 0.03 56 1012.4
20260507112730 54 310 0.9 3.5 0.00 0.03 0.03 54 1012.3
20260507112227 53 347 2.6 2.6 0.00 0.03 0.03 54 1012.1
20260507111724 54 336 2.6 3.5 0.00 0.03 0.03 55 1012.3
20260507111221 54 326 1.7 5.2 0.00 0.03 0.03 54 1012.2
20260507110717 54 353 2.6 4.3 0.00 0.03 0.03 56 1012.3
20260507110214 54 347 1.7 2.6 0.00 0.03 0.03 58 1012.2
20260507105711 54 26 1.7 2.6 0.00 0.03 0.03 58 1012.2
20260507105206 54 337 0.9 2.6 0.00 0.03 0.03 60 1012.4
20260507104704 54 9 2.6 3.5 0.00 0.03 0.03 61 1012.3
20260507104200 54 352 1.7 2.6 0.00 0.03 0.03 61 1012.2
20260507103656 54 7 1.7 2.6 0.00 0.03 0.03 62 1012.1
20260507103153 54 0 3.5 3.5 0.00 0.03 0.03 64 1012.0
20260507102649 54 18 1.7 1.7 0.00 0.03 0.03 65 1011.9
20260507102146 54 325 0.9 1.7 0.00 0.03 0.03 67 1011.8
20260507101642 54 346 1.7 1.7 0.00 0.03 0.03 67 1011.9
20260507101138 54 24 1.7 2.6 0.00 0.03 0.03 68 1011.6
20260507100635 54 352 0.9 2.6 0.00 0.03 0.03 67 1011.7
20260507100133 54 1 1.7 2.6 0.00 0.03 0.03 67 1011.5
20260507095631 54 325 1.7 2.6 0.00 0.03 0.03 66 1011.7
20260507095127 55 0 1.7 2.6 0.00 0.03 0.03 67 1011.5
20260507094624 54 21 2.6 3.5 0.00 0.03 0.03 66 1011.6
20260507094121 55 347 1.7 2.6 0.00 0.03 0.03 66 1011.4
20260507093618 55 339 1.7 3.5 0.00 0.03 0.03 66 1011.4
20260507093117 55 337 1.7 2.6 0.00 0.03 0.03 66 1011.4
20260507092613 55 19 1.7 3.5 0.00 0.03 0.03 67 1011.4
20260507092109 55 29 1.7 1.7 0.00 0.03 0.03 67 1011.4
20260507091606 55 350 1.7 1.7 0.00 0.03 0.03 66 1011.3
20260507091102 55 355 2.6 3.5 0.00 0.03 0.03 66 1011.1
20260507090558 55 22 1.7 1.7 0.00 0.03 0.03 66 1011.1
20260507090055 55 356 1.7 2.6 0.00 0.03 0.03 66 1011.4
20260507085552 55 42 0.0 0.9 0.00 0.03 0.03 66 1011.3
20260507085049 55 351 1.7 2.6 0.00 0.03 0.03 65 1011.4
20260507084545 55 340 0.9 1.7 0.00 0.03 0.03 65 1011.3
20260507084043 55 247 0.0 0.9 0.00 0.03 0.03 66 1011.5
20260507083539 55 29 1.7 2.6 0.00 0.03 0.03 65 1011.3
20260507083036 55 10 1.7 2.6 0.00 0.03 0.03 66 1011.1
20260507082532 55 354 1.7 1.7 0.00 0.03 0.03 66 1011.4
20260507082028 55 354 1.7 2.6 0.00 0.03 0.03 66 1011.3
20260507081525 55 324 1.7 1.7 0.00 0.03 0.03 67 1011.2
20260507081022 55 18 5.2 5.2 0.00 0.03 0.03 67 1011.3
20260507080518 55 343 1.7 1.7 0.00 0.03 0.03 68 1010.9
20260507080014 55 2 0.0 1.7 0.00 0.03 0.03 67 1011.1
20260507075509 55 330 0.0 3.5 0.00 0.03 0.03 67 1011.0
20260507075006 55 348 1.7 2.6 0.00 0.03 0.03 67 1010.9
20260507074503 55 343 0.9 3.5 0.00 0.03 0.03 67 1010.8
20260507074002 55 12 3.5 3.5 0.00 0.03 0.03 67 1010.7
20260507073457 55 334 0.0 1.7 0.00 0.03 0.03 68 1010.8
20260507072954 55 349 1.7 2.6 0.00 0.03 0.03 67 1010.7
20260507072452 55 9 1.7 2.6 0.00 0.03 0.03 68 1010.8
20260507071949 55 3 3.5 3.5 0.00 0.03 0.03 68 1010.9
20260507071445 55 343 0.0 1.7 0.00 0.03 0.03 68 1010.6
20260507070942 55 356 2.6 4.3 0.00 0.03 0.03 67 1010.7
20260507070440 56 344 2.6 4.3 0.00 0.03 0.03 67 1010.6
20260507065936 56 342 1.7 4.3 0.00 0.03 0.03 67 1010.7
20260507065433 56 8 5.2 8.7 0.00 0.03 0.03 67 1010.5
20260507064930 56 323 2.6 3.5 0.00 0.03 0.03 70 1010.9
20260507064428 56 11 2.6 2.6 0.02 0.03 0.03 69 1010.8
20260507063926 56 1 1.7 3.5 0.02 0.03 0.03 70 1010.7
20260507063423 56 330 0.9 1.7 0.00 0.03 0.03 70 1011.1
20260507062920 56 9 1.7 2.6 0.02 0.03 0.03 71 1011.1
20260507062417 56 18 0.0 2.6 0.02 0.03 0.03 70 1011.2
20260507061914 56 353 1.7 3.5 0.00 0.02 0.02 70 1011.2
20260507061412 56 3 0.9 1.7 0.00 0.02 0.02 71 1011.1
20260507060911 56 6 3.5 3.5 0.00 0.02 0.02 71 1011.4
20260507060407 56 348 1.7 1.7 0.00 0.02 0.02 71 1011.0
20260507055904 56 349 2.6 2.6 0.02 0.02 0.02 72 1011.0
20260507055358 56 320 1.7 2.6 0.02 0.02 0.02 71 1011.0
20260507054856 56 347 1.7 2.6 0.00 0.02 0.02 72 1011.0
20260507054352 56 347 0.9 1.7 0.02 0.02 0.02 72 1011.0
20260507053849 56 353 1.7 2.6 0.02 0.02 0.02 73 1010.8
20260507053347 56 353 1.7 2.6 0.00 0.02 0.02 73 1010.8
20260507052846 56 327 0.9 2.6 0.00 0.02 0.02 73 1010.8
20260507052342 56 332 0.0 0.9 0.00 0.02 0.02 73 1011.0
20260507051839 56 10 4.3 5.2 0.02 0.02 0.02 72 1010.9
20260507051337 56 353 1.7 6.1 0.05 0.02 0.02 72 1011.0
20260507050834 57 329 1.7 7.0 0.05 0.01 0.01 72 1011.1
20260507050330 57 345 1.7 4.3 0.02 0.01 0.01 72 1011.2
20260507045827 57 6 3.5 4.3 0.00 0.00 0.00 71 1010.9
20260507045324 57 350 2.6 3.5 0.00 0.00 0.00 72 1011.0
20260507044821 57 354 1.7 3.5 0.00 0.00 0.00 72 1010.9
20260507044317 57 22 1.7 2.6 0.02 0.00 0.00 72 1010.6
20260507043813 57 352 2.6 3.5 0.02 0.00 0.00 72 1010.7
20260507043310 57 16 3.5 3.5 0.00 0.00 0.00 73 1010.7
20260507042806 57 339 2.6 3.5 0.00 0.00 0.00 74 1011.0
20260507042302 57 16 2.6 5.2 0.00 0.00 0.00 74 1010.8
20260507041759 58 0 2.6 3.5 0.00 0.00 0.00 74 1011.0
20260507041255 58 346 1.7 6.1 0.00 0.00 0.00 73 1010.8
20260507040753 58 37 1.7 2.6 0.00 0.00 0.00 73 1010.0
20260507040249 58 18 0.9 4.3 0.00 0.00 0.00 73 1010.4
20260507035745 58 6 4.3 5.2 0.00 0.35 0.35 73 1010.7
20260507035240 59 29 3.5 7.8 0.00 0.35 0.35 73 1011.0
20260507034738 59 358 4.3 7.0 0.00 0.35 0.35 73 1010.9
20260507034235 59 56 0.0 1.7 0.00 0.35 0.35 73 1010.5
20260507033733 59 346 2.6 3.5 0.00 0.35 0.35 73 1010.5
20260507033230 59 357 3.5 3.5 0.00 0.35 0.35 73 1010.3
20260507032728 60 7 4.3 7.8 0.00 0.35 0.35 73 1009.9
20260507032223 60 4 2.6 3.5 0.00 0.35 0.35 73 1010.0
20260507031720 60 359 0.0 1.7 0.00 0.35 0.35 74 1010.3
20260507031217 60 5 0.0 2.6 0.00 0.35 0.35 73 1010.1
20260507030714 61 305 0.0 3.5 0.00 0.35 0.35 73 1010.4
20260507030212 61 315 0.9 2.6 0.00 0.35 0.35 73 1010.3
20260507025708 61 13 0.9 2.6 0.00 0.35 0.35 73 1010.4
20260507025206 61 5 1.7 3.5 0.00 0.35 0.35 73 1010.2
20260507024704 61 353 4.3 4.3 0.00 0.35 0.35 73 1010.4
20260507024200 61 338 2.6 2.6 0.00 0.35 0.35 73 1009.9
20260507023656 62 345 2.6 2.6 0.00 0.35 0.35 73 1009.6
20260507023153 62 348 1.7 3.5 0.00 0.35 0.35 73 1009.5
20260507022650 62 0 3.5 4.3 0.00 0.35 0.35 73 1009.6
20260507022146 62 353 2.6 4.3 0.00 0.35 0.35 73 1009.9
20260507021643 62 359 3.5 5.2 0.00 0.35 0.35 72 1009.9
20260507021138 63 11 2.6 3.5 0.00 0.35 0.35 70 1009.7
20260507020637 63 345 1.7 5.2 0.00 0.35 0.35 70 1009.5
20260507020132 63 358 3.5 4.3 0.00 0.35 0.35 69 1009.6
20260507015631 63 350 3.5 7.0 0.00 0.35 0.35 69 1009.8
20260507015128 63 342 3.5 6.1 0.00 0.35 0.35 69 1009.6
20260507014624 63 332 2.6 3.5 0.00 0.35 0.35 69 1009.7
20260507014120 63 357 3.5 4.3 0.00 0.35 0.35 69 1009.6
20260507013617 63 349 3.5 4.3 0.00 0.35 0.35 69 1009.6
20260507013114 64 344 1.7 3.5 0.00 0.35 0.35 69 1009.4
20260507012612 64 10 4.3 4.3 0.00 0.35 0.35 70 1009.2
20260507012107 64 341 2.6 5.2 0.00 0.35 0.35 70 1009.7
20260507011606 64 2 3.5 3.5 0.00 0.35 0.35 72 1009.5
20260507011101 64 352 1.7 2.6 0.00 0.35 0.35 74 1009.4
20260507010556 64 322 1.7 2.6 0.00 0.35 0.35 75 1009.5
20260507010052 64 338 1.7 3.5 0.00 0.35 0.35 74 1009.4
20260507005550 64 2 1.7 3.5 0.00 0.35 0.35 74 1009.4
20260507005046 64 356 4.3 4.3 0.00 0.35 0.35 73 1009.5
20260507004543 65 48 1.7 4.3 0.00 0.35 0.35 74 1009.4
20260507004041 65 351 5.2 7.0 0.00 0.35 0.35 74 1009.4
20260507003536 65 352 1.7 4.3 0.00 0.35 0.35 75 1009.3
20260507003031 65 9 5.2 5.2 0.00 0.35 0.35 75 1009.3
20260507002528 65 304 1.7 1.7 0.00 0.35 0.35 77 1009.3
20260507002024 65 34 0.0 3.5 0.00 0.35 0.35 77 1009.2
20260507001521 66 346 2.6 3.5 0.00 0.35 0.35 78 1009.4
20260507001019 66 336 1.7 2.6 0.00 0.35 0.35 79 1009.3
20260507000514 66 354 1.7 3.5 0.00 0.35 0.35 79 1009.1
20260507000010 66 352 0.0 1.7 0.02 0.35 0.35 81 1008.9
20260506235508 66 348 2.6 2.6 0.02 0.35 0.35 82 1009.1
20260506235003 66 79 0.0 2.6 0.00 0.35 0.35 82 1008.9
20260506234501 66 309 2.6 2.6 0.00 0.35 0.35 82 1009.0
20260506233958 66 334 1.7 1.7 0.00 0.35 0.35 83 1008.7
20260506233455 66 340 1.7 1.7 0.00 0.35 0.35 83 1008.8
20260506232951 66 4 2.6 2.6 0.00 0.35 0.35 86 1008.5
20260506232448 66 356 1.7 1.7 0.00 0.35 0.35 88 1008.3
20260506231943 66 324 0.9 1.7 0.00 0.35 0.35 89 1008.0
20260506231441 66 297 1.7 1.7 0.02 0.35 0.35 88 1008.2
20260506230938 66 145 0.0 0.0 0.02 0.35 0.35 87 1008.2
20260506230434 66 208 0.0 1.7 0.00 0.35 0.35 86 1007.9
20260506225931 67 325 0.0 0.9 0.02 0.35 0.35 85 1008.0
20260506225428 67 277 0.0 0.0 0.02 0.35 0.35 86 1007.7
20260506224925 67 26 0.0 0.0 0.00 0.34 0.34 83 1007.9
20260506224423 68 6 0.0 1.7 0.02 0.34 0.34 81 1008.0
20260506223919 68 234 0.0 0.0 0.05 0.34 0.34 82 1007.8
20260506223414 68 317 1.7 1.7 0.02 0.34 0.34 79 1008.0
20260506222912 68 145 1.7 1.7 0.00 0.34 0.34 78 1007.8
20260506222408 69 238 0.0 1.7 0.00 0.34 0.34 76 1007.9
20260506221906 69 31 0.9 1.7 0.00 0.34 0.34 76 1007.7
20260506221402 69 234 0.0 0.9 0.00 0.34 0.34 75 1007.7
20260506220900 69 328 0.0 1.7 0.00 0.34 0.34 76 1007.7
20260506220355 69 318 0.0 0.9 0.00 0.34 0.34 76 1007.5
20260506215852 69 148 0.0 1.7 0.00 0.34 0.34 75 1007.6
20260506215348 69 290 1.7 3.5 0.00 0.34 0.34 73 1007.7
20260506214844 70 283 0.0 2.6 0.00 0.34 0.34 73 1007.8
20260506214341 70 257 0.9 3.5 0.00 0.34 0.34 73 1007.5
20260506213839 70 16 3.5 3.5 0.00 0.34 0.34 73 1007.5
20260506213336 70 238 0.0 1.7 0.00 0.34 0.34 73 1007.5
20260506212833 70 0 1.7 3.5 0.00 0.34 0.34 72 1007.3
20260506212329 70 176 1.7 3.5 0.00 0.34 0.34 72 1007.1
20260506211824 70 315 1.7 1.7 0.00 0.34 0.34 72 1007.3
20260506211320 71 247 3.5 3.5 0.00 0.34 0.34 71 1007.2
20260506210818 71 236 1.7 3.5 0.00 0.34 0.34 71 1007.1
20260506210315 71 112 0.9 1.7 0.00 0.34 0.34 72 1007.2
20260506205812 71 244 0.0 2.6 0.00 0.34 0.34 76 1006.9
20260506205308 70 3 0.9 2.6 0.00 0.34 0.34 74 1007.2
20260506204804 70 258 1.7 1.7 0.00 0.34 0.34 72 1006.8
20260506204302 70 178 0.9 2.6 0.00 0.34 0.34 71 1006.9
20260506203759 70 214 1.7 4.3 0.00 0.34 0.34 69 1006.8
20260506203257 71 219 2.6 2.6 0.00 0.34 0.34 70 1006.8
20260506202754 72 195 2.6 7.8 0.00 0.34 0.34 67 1006.9
20260506202251 72 305 0.9 2.6 0.00 0.34 0.34 69 1006.8
20260506201747 71 143 4.3 7.0 0.00 0.34 0.34 70 1007.0
20260506201244 71 3 3.5 5.2 0.00 0.34 0.34 71 1006.9
20260506200741 71 231 2.6 7.8 0.00 0.34 0.34 72 1007.1
20260506200237 71 132 2.6 3.5 0.00 0.34 0.34 72 1007.2